Meteo orario Gogotl

Oggi, 16 Aprile, Venerdi

Tempo Temperatura Precipitazioni Vento Pressione Umidità
00:00 +8°C° 0 mm 1 m/s 639 mm Hg 66%
01:00 +7°C° 0 mm 1 m/s 639 mm Hg 66%
02:00 +7°C° 0 mm 1 m/s 639 mm Hg 65%
03:00 +6°C° 0 mm 1 m/s 639 mm Hg 64%
04:00 +6°C° 0 mm 1 m/s 639 mm Hg 64%
05:00 +6°C° 0 mm 1 m/s 640 mm Hg 64%
06:00 +6°C° 0 mm 1 m/s 640 mm Hg 64%
07:00 +8°C° 0 mm 1 m/s 640 mm Hg 61%
08:00 +9°C° 0 mm 1 m/s 640 mm Hg 58%
09:00 +10°C° 0 mm 2 m/s 641 mm Hg 53%
10:00 +12°C° 0 mm 2 m/s 641 mm Hg 51%
11:00 +13°C° 0 mm 2 m/s 641 mm Hg 48%
12:00 +14°C° 0 mm 2 m/s 641 mm Hg 46%
13:00 +14°C° 0.2 mm 2 m/s 641 mm Hg 48%
14:00 +13°C° 0.2 mm 2 m/s 641 mm Hg 49%
15:00 +13°C° 0.2 mm 2 m/s 640 mm Hg 51%
16:00 +13°C° 0.2 mm 2 m/s 640 mm Hg 55%
17:00 +12°C° 0.2 mm 2 m/s 640 mm Hg 60%
18:00 +10°C° 0.2 mm 2 m/s 640 mm Hg 64%
19:00 +9°C° 0.1 mm 2 m/s 640 mm Hg 68%
20:00 +8°C° 0.1 mm 2 m/s 641 mm Hg 72%
21:00 +7°C° 0.1 mm 2 m/s 641 mm Hg 76%
22:00 +7°C° 0 mm 2 m/s 641 mm Hg 75%
23:00 +7°C° 0 mm 2 m/s 641 mm Hg 74%

Domani, 17 Aprile, Sabato

Tempo Temperatura Precipitazioni Vento Pressione Umidità
00:00 +7°C° 0 mm 2 m/s 641 mm Hg 72%
01:00 +7°C° 0 mm 2 m/s 640 mm Hg 72%
02:00 +6°C° 0 mm 2 m/s 640 mm Hg 73%
03:00 +6°C° 0 mm 2 m/s 640 mm Hg 73%
04:00 +6°C° 0 mm 2 m/s 640 mm Hg 72%
05:00 +6°C° 0 mm 2 m/s 640 mm Hg 70%
06:00 +7°C° 0 mm 2 m/s 640 mm Hg 69%
07:00 +9°C° 0 mm 2 m/s 640 mm Hg 60%
08:00 +12°C° 0 mm 2 m/s 641 mm Hg 51%
09:00 +14°C° 0 mm 1 m/s 641 mm Hg 42%
10:00 +16°C° 0 mm 2 m/s 641 mm Hg 40%
11:00 +17°C° 0 mm 2 m/s 641 mm Hg 37%
12:00 +18°C° 0 mm 2 m/s 641 mm Hg 34%
13:00 +18°C° 0 mm 2 m/s 641 mm Hg 36%
14:00 +18°C° 0 mm 2 m/s 641 mm Hg 38%
15:00 +18°C° 0 mm 3 m/s 641 mm Hg 40%
16:00 +16°C° 0 mm 2 m/s 641 mm Hg 49%
17:00 +15°C° 0 mm 2 m/s 641 mm Hg 57%
18:00 +14°C° 0 mm 2 m/s 641 mm Hg 66%
19:00 +13°C° 0 mm 2 m/s 641 mm Hg 70%
20:00 +12°C° 0 mm 1 m/s 641 mm Hg 75%
21:00 +11°C° 0 mm 1 m/s 641 mm Hg 80%
22:00 +11°C° 0 mm 1 m/s 641 mm Hg 80%
23:00 +10°C° 0 mm 1 m/s 641 mm Hg 81%

Dopodomani, 18 Aprile, Domenica

Tempo Temperatura Precipitazioni Vento Pressione Umidità
00:00 +10°C° 0 mm 1 m/s 641 mm Hg 81%
01:00 +10°C° 0 mm 1 m/s 641 mm Hg 83%
02:00 +10°C° 0 mm 1 m/s 641 mm Hg 85%
03:00 +9°C° 0 mm 1 m/s 641 mm Hg 87%
04:00 +9°C° 0 mm 1 m/s 641 mm Hg 87%
05:00 +9°C° 0 mm 1 m/s 641 mm Hg 88%
06:00 +9°C° 0 mm 1 m/s 641 mm Hg 88%
07:00 +10°C° 0 mm 1 m/s 641 mm Hg 83%
08:00 +11°C° 0 mm 1 m/s 641 mm Hg 77%
09:00 +13°C° 0 mm 1 m/s 641 mm Hg 72%
10:00 +14°C° 0 mm 2 m/s 641 mm Hg 66%
11:00 +15°C° 0 mm 2 m/s 641 mm Hg 61%
12:00 +16°C° 0 mm 2 m/s 640 mm Hg 56%
13:00 +17°C° 0.2 mm 2 m/s 640 mm Hg 54%
14:00 +17°C° 0.2 mm 3 m/s 640 mm Hg 53%
15:00 +18°C° 0.2 mm 3 m/s 640 mm Hg 51%
16:00 +16°C° 0.3 mm 2 m/s 640 mm Hg 58%
17:00 +15°C° 0.3 mm 2 m/s 640 mm Hg 64%
18:00 +14°C° 0.3 mm 2 m/s 639 mm Hg 70%
19:00 +13°C° 0.4 mm 2 m/s 640 mm Hg 73%
20:00 +13°C° 0.4 mm 1 m/s 640 mm Hg 77%
21:00 +12°C° 0.4 mm 1 m/s 640 mm Hg 80%
22:00 +12°C° 0.5 mm 1 m/s 640 mm Hg 82%
23:00 +11°C° 0.5 mm 1 m/s 640 mm Hg 85%

19 Aprile, Lunedi

Tempo Temperatura Precipitazioni Vento Pressione Umidità
00:00 +11°C° 0.5 mm 1 m/s 640 mm Hg 88%
01:00 +10°C° 0 mm 1 m/s 640 mm Hg 87%
02:00 +10°C° 0 mm 1 m/s 640 mm Hg 87%
03:00 +10°C° 0 mm 1 m/s 640 mm Hg 86%
04:00 +10°C° 0 mm 1 m/s 640 mm Hg 84%
05:00 +11°C° 0 mm 1 m/s 640 mm Hg 81%
06:00 +11°C° 0 mm 1 m/s 640 mm Hg 79%
07:00 +12°C° 0 mm 1 m/s 641 mm Hg 73%
08:00 +14°C° 0 mm 1 m/s 641 mm Hg 66%
09:00 +15°C° 0 mm 1 m/s 641 mm Hg 60%
10:00 +16°C° 0 mm 2 m/s 641 mm Hg 56%
11:00 +17°C° 0 mm 2 m/s 641 mm Hg 52%
12:00 +18°C° 0 mm 3 m/s 641 mm Hg 48%
13:00 +18°C° 0.3 mm 3 m/s 641 mm Hg 50%
14:00 +18°C° 0.3 mm 3 m/s 641 mm Hg 52%
15:00 +18°C° 0.3 mm 3 m/s 641 mm Hg 54%
16:00 +17°C° 0.1 mm 2 m/s 641 mm Hg 57%
17:00 +16°C° 0.1 mm 2 m/s 641 mm Hg 61%
18:00 +16°C° 0.1 mm 2 m/s 641 mm Hg 64%
19:00 +15°C° 0 mm 2 m/s 640 mm Hg 68%
20:00 +14°C° 0 mm 1 m/s 640 mm Hg 71%
21:00 +13°C° 0 mm 1 m/s 640 mm Hg 75%
22:00 +12°C° 0 mm 2 m/s 640 mm Hg 74%
23:00 +12°C° 0 mm 2 m/s 640 mm Hg 73%

20 Aprile, Martedi

Tempo Temperatura Precipitazioni Vento Pressione Umidità
00:00 +11°C° 0 mm 3 m/s 639 mm Hg 73%
01:00 +11°C° 0 mm 3 m/s 639 mm Hg 72%
02:00 +11°C° 0 mm 3 m/s 639 mm Hg 72%
03:00 +10°C° 0 mm 3 m/s 639 mm Hg 71%
04:00 +11°C° 0 mm 3 m/s 638 mm Hg 69%
05:00 +11°C° 0 mm 3 m/s 638 mm Hg 68%
06:00 +12°C° 0 mm 3 m/s 638 mm Hg 66%
07:00 +15°C° 0 mm 2 m/s 638 mm Hg 59%
08:00 +17°C° 0 mm 2 m/s 639 mm Hg 52%
09:00 +20°C° 0 mm 1 m/s 639 mm Hg 45%
10:00 +20°C° 0 mm 2 m/s 639 mm Hg 41%
11:00 +21°C° 0 mm 2 m/s 638 mm Hg 38%
12:00 +23°C° 0 mm 2 m/s 638 mm Hg 35%
13:00 +24°C° 0 mm 2 m/s 638 mm Hg 32%
14:00 +24°C° 0 mm 2 m/s 638 mm Hg 29%
15:00 +25°C° 0 mm 2 m/s 638 mm Hg 27%
16:00 +24°C° 0 mm 2 m/s 637 mm Hg 33%
17:00 +21°C° 0 mm 3 m/s 637 mm Hg 40%
18:00 +20°C° 0 mm 3 m/s 636 mm Hg 46%
19:00 +18°C° 1.3 mm 3 m/s 637 mm Hg 57%
20:00 +16°C° 1.3 mm 3 m/s 637 mm Hg 69%
21:00 +13°C° 1.3 mm 3 m/s 638 mm Hg 80%
22:00 +12°C° 0.1 mm 3 m/s 638 mm Hg 79%
23:00 +12°C° 0.1 mm 3 m/s 637 mm Hg 78%

21 Aprile, Mercoledi

Tempo Temperatura Precipitazioni Vento Pressione Umidità
00:00 +13°C° 0.1 mm 2 m/s 637 mm Hg 78%
01:00 +11°C° 0 mm 3 m/s 638 mm Hg 81%
02:00 +10°C° 0 mm 3 m/s 638 mm Hg 84%
03:00 +9°C° 0 mm 3 m/s 638 mm Hg 87%
04:00 +9°C° 0 mm 3 m/s 638 mm Hg 86%
05:00 +8°C° 0 mm 2 m/s 639 mm Hg 85%
06:00 +8°C° 0 mm 2 m/s 639 mm Hg 84%
07:00 +8°C° 0 mm 2 m/s 639 mm Hg 81%
08:00 +8°C° 0 mm 2 m/s 640 mm Hg 78%
09:00 +9°C° 0 mm 2 m/s 640 mm Hg 76%
10:00 +9°C° 0 mm 2 m/s 640 mm Hg 74%
11:00 +9°C° 0 mm 2 m/s 640 mm Hg 72%
12:00 +10°C° 0 mm 2 m/s 640 mm Hg 71%
13:00 +10°C° 0.1 mm 2 m/s 640 mm Hg 70%
14:00 +10°C° 0.1 mm 2 m/s 640 mm Hg 69%
15:00 +10°C° 0.1 mm 2 m/s 640 mm Hg 68%
16:00 +9°C° 0.1 mm 2 m/s 640 mm Hg 72%
17:00 +8°C° 0.1 mm 2 m/s 640 mm Hg 75%
18:00 +8°C° 0.1 mm 2 m/s 640 mm Hg 78%
19:00 +7°C° 0.6 mm 2 m/s 640 mm Hg 82%
20:00 +8°C° 0.6 mm 1 m/s 640 mm Hg 85%
21:00 +7°C° 0.6 mm 1 m/s 640 mm Hg 89%
22:00 +7°C° 1.7 mm 1 m/s 640 mm Hg 90%
23:00 +7°C° 1.7 mm 1 m/s 640 mm Hg 90%
Mostrare altro

Abbiamo bisogno del tuo consenso

Meteoprog e i nostri fornitori di servizi possono memorizzare e accedere a dati personali come cookie, identificatori di dispositivi o altre tecnologie simili sul tuo dispositivo e possono elaborare tali dati per personalizzare i contenuti e gli annunci, nonché fornire funzionalità dei social media e analizzarne il traffico.

  • Archiviare e/o accedere alle informazioni sul tuo dispositivo

    Cookie, identificatori di dispositivi o altre informazioni possono essere memorizzati o resi accessibili sul tuo dispositivo per le finalità sopra indicate.

  • Annunci e contenuti personalizzati, misurazione di annunci e contenuti, approfondimenti sul pubblico e sviluppo di prodotti

    Gli annunci e i contenuti possono essere personalizzati in base a un profilo. È possibile aggiungere più dati per personalizzare meglio annunci e contenuti. È possibile misurare il rendimento degli annunci e dei contenuti. È possibile ricavare informazioni sul pubblico che ha visto gli annunci e i contenuti. Tali dati possono essere utilizzati per sviluppare o migliorare l'esperienza, i sistemi e il software dell'utente.

Cliccando su “Accetto”, acconsenti all'uso di cookie, identificatori di dispositivo, web beacon o altre tecnologie simili. Puoi modificare le impostazioni nel browser del tuo dispositivo.

Per determinati scopi, è possibile fare affidamento su interessi legali, piuttosto che sul consenso. Puoi approfondire questo argomento consultando la nostra Informativa sulla privacy e sui cookie.